AirNav   Air Wisconsin Up To $57,000 Bonus
 
 1270 users online  

X44 Miami Seaplane Base
Miami, Florida, USA

GOING TO MIAMI?


FAA INFORMATION EFFECTIVE 08 OCTOBER 2020

Location

FAA Identifier: X44
Lat/Long: 25-46-42.0000N 080-10-13.0000W
25-46.700000N 080-10.216667W
25.7783333,-80.1702778
(estimated)
Elevation: 6 ft. / 2 m (estimated)
Variation: 03W (1985)
From city: 2 miles E of MIAMI, FL
Time zone: UTC -4 (UTC -5 during Standard Time)
Zip code: 33132

Seaplane Base Operations

Seaplane Base use: Open to the public, ALL TERMINAL FACILITIES ARE PRIVATE USE.
Activation date: 03/1948
Control tower: no
ARTCC: MIAMI CENTER
FSS: MIAMI FLIGHT SERVICE STATION
NOTAMs facility: MIA (NOTAM-D service available)
Attendance: DAYLIGHT HOURS
Wind indicator: yes, WIND SOCK LCTD APRXLY 500FT NW OF RAMP.
Segmented circle: no

Seaplane Base Communications

CTAF: 123.025
UNICOM: 122.8
WX ASOS at MIA (7 nm W): 119.15 (305-870-0235)
WX ASOS at OPF (10 nm NW): 125.9 (305-681-4063)
WX ASOS at HWO (14 nm N): PHONE 954-983-5904
WX ASOS at TMB (16 nm SW): PHONE 305-235-1332
WX ASOS at FLL (18 nm N): PHONE 954-359-7857

Nearby radio navigation aids

VOR radial/distance  VOR name  Freq  Var
VKZr336/1.8VIRGINIA KEY VOR/DME117.1004W
DHPr102/9.7DOLPHIN VORTAC113.9004W
FLLr187/17.7FORT LAUDERDALE VOR/DME114.4006W

Seaplane Base Services

Airframe service: NONE
Powerplant service: NONE
Bottled oxygen: NONE
Bulk oxygen: NONE

Runway Information

Helipad H1

Dimensions: 50 x 50 ft. / 15 x 15 m
Surface: concrete, in excellent condition
Latitude: 25-46.970000N
Longitude: 080-10.580667W
Elevation: 6.0 ft.
Traffic pattern: leftleft

Runway 12W/30W

Dimensions: 14000 x 200 ft. / 4267 x 61 m
Surface: water
RUNWAY 12W  RUNWAY 30W
Latitude: 25-46.984333N25-45.989500N
Longitude: 080-10.774000W080-08.469667W
Elevation: 0.0 ft.0.0 ft.
Traffic pattern: leftleft
Runway heading: 123 magnetic, 120 true303 magnetic, 300 true

Seaplane Base Ownership and Management from official FAA records

Ownership: Publicly-owned
Owner: CITY OF MIAMI
444 SW 2NE, MIAMI SEAPLANE BASE
MIAMI, FL 33130
Phone 305-416-1025
Manager: EMILIO T. GONZALEZ
CITY MANAGER, 444 SW 2ND AVE
MIAMI, FL 33130
Phone 305-416-1025

Seaplane Base Operational Statistics

Aircraft operations: avg 37/week *
100% air taxi
* for 12-month period ending 02 May 2018

Additional Remarks

MIAMI HELIPORT LCTD 400 FT NE.
500 FT RDO TWR 3/4MI W OF BASE.
NUMEROUS WATERCRAFT AND LARGE PASSENGER VESSELS IN AREA.
FOR CD CTC MIAMI APCH AT 305-869-5432.

Instrument Procedures

There are no published instrument procedures at X44.

Some nearby airports with instrument procedures:

KMIA - Miami International Airport (7 nm W)
KOPF - Miami-Opa Locka Executive Airport (10 nm NW)
KHWO - North Perry Airport (14 nm N)
KTMB - Miami Executive Airport (16 nm SW)
KFLL - Fort Lauderdale/Hollywood International Airport (18 nm N)
 
Loc | Ops | Rwys | IFR | FBO | Links
Com | Nav | Svcs | Stats | Notes

Reliance Aviation
AirBoss

 
Area around X44 (Miami Seaplane Base)
 
Road maps at: MapQuest Bing Google
 
Aerial photo
WARNING: Photo may not be current or correct
Aerial photo of X44 (Miami Seaplane Base)
Photo by Mike McKenney, Bill McKenney piloting
Photo taken 12-Feb-2009
looking SE (from a left base), altitude is 400 feet. Landing zone is in the channel.

Do you have a better or more recent aerial photo of Miami Seaplane Base that you would like to share? If so, please send us your photo.

 
Sectional chart

 
Airport distance calculator
Flying to Miami Seaplane Base? Find the distance to fly.

From to X44

Sunrise and sunset
Times for 27-Oct-2020
 Local
(UTC-4)
 Zulu
(UTC)
Morning civil twilight07:0411:04
Sunrise07:2811:28
Sunset18:4122:41
Evening civil twilight19:0523:05

Current date and time
Zulu (UTC)  27-Oct-2020 22:04:13
Local (UTC-4)  27-Oct-2020 18:04:13
 
METAR
KMIA 
8nm W 
272153Z 08009KT 10SM SCT028 SCT250 29/24 A3001 RMK AO2 SLP162 T02940239 $
KOPF 
10nm NW 
272153Z 10011KT 10SM FEW025 28/22 A3002 RMK AO2 SLP165 T02830222
KHWO 
14nm N 
272153Z 08012KT 10SM CLR 29/24 A3002 RMK AO2 SLP166 T02940239
KTMB 
16nm SW 
272153Z 10014KT 10SM CLR 28/24 A3000 RMK AO2 SLP157 T02780239
KFLL 
17nm N 
272153Z 08012KT 10SM FEW023 SCT250 29/24 A3001 RMK AO2 SLP162 T02890244 $
TAF
KMIA 
8nm W 
271720Z 2718/2824 11013KT P6SM SCT025 FM280100 08006KT P6SM FEW015 SCT150 FM281500 11012KT P6SM SCT025 SCT050
KOPF 
10nm NW 
271720Z 2718/2818 11011KT P6SM SCT025 FM280000 08006KT P6SM FEW015 SCT150 FM281500 12013KT P6SM SCT025 SCT040
KTMB 
16nm SW 
271720Z 2718/2818 11012KT P6SM SCT025 FM280100 08006KT P6SM FEW015 SCT150 FM281500 12013KT P6SM SCT025 SCT040
KFLL 
17nm N 
271720Z 2718/2824 11013KT P6SM SCT025 FM280100 08007KT P6SM FEW015 SCT150 FM281500 12014KT P6SM SCT025 SCT050
NOTAMs
Click for the latest NOTAMs
NOTAMs are issued by the DoD/FAA and will open in a separate window not controlled by AirNav.

 

 
 

Would you like to see your business listed on this page?

 If your business provides an interesting product or service to pilots, flight crews, aircraft, or users of the Miami Seaplane Base, you should consider listing it here.  To start the listing process, click on the button below
 
Add a business
 

Other Pages about Miami Seaplane Base

www.miamiseaplanebase.com
 
Update a link
 
Copyright © AirNav, LLC. All rights reserved. Privacy Policy  Contact